GW3957 Weather Reports


time (UTC)temp
C
wind
direction
speed
KPH
gust
KPH
rain 1hr
cm
rain 24hr
cm
rain mn
cm
humidity
%
barometer
mb
20260504130349 10 252 1.6 4.8 0.00 0.00 0.00 52 1008.9
20260504120312 10 345 1.6 6.4 0.00 0.00 0.00 51 1009.1
20260504110236 6 198 1.6 4.8 0.00 0.00 0.00 65 1008.9
20260504100159 3 222 0.0 0.0 0.00 0.00 0.00 76 1008.6
20260504090122 5 195 1.6 4.8 0.00 0.00 0.00 71 1008.8
20260504081552 5 209 0.0 0.0 0.00 0.00 0.00 70 1008.9
20260504081048 5 140 0.0 0.0 0.00 0.00 0.00 69 1008.8
20260504080545 5 229 0.0 1.6 0.00 0.00 0.00 69 1009.0
20260504050357 3 198 0.0 0.0 0.00 0.00 0.00 77 1008.4
20260504045855 2 212 0.0 0.0 0.00 0.00 0.00 78 1008.7
20260504045349 2 212 0.0 0.0 0.00 0.00 0.00 79 1008.8
20260504044847 2 203 0.0 0.0 0.00 0.00 0.00 79 1008.8
20260504044344 2 220 0.0 0.0 0.00 0.00 0.00 81 1008.9
20260504043841 2 205 0.0 0.0 0.00 0.00 0.00 83 1008.9
20260504043338 2 206 0.0 0.0 0.00 0.00 0.00 82 1008.9
20260504042835 2 207 0.0 0.0 0.00 0.00 0.00 81 1008.9
20260504042331 3 208 0.0 0.0 0.00 0.00 0.00 80 1008.8
20260504041828 3 208 0.0 0.0 0.00 0.00 0.00 80 1008.8
20260504041324 3 231 0.0 0.0 0.00 0.00 0.00 79 1008.9
20260504040820 3 232 0.0 0.0 0.00 0.00 0.00 76 1009.0
20260504040318 3 232 0.0 0.0 0.00 0.00 0.00 76 1009.1
20260504035814 3 232 0.0 0.0 0.00 0.00 0.00 75 1008.9
20260504035311 3 232 0.0 0.0 0.00 0.00 0.00 73 1009.3
20260504034808 3 232 0.0 0.0 0.00 0.00 0.00 74 1009.2
20260504034306 4 232 0.0 0.0 0.00 0.00 0.00 73 1009.0
20260504033803 4 232 0.0 0.0 0.00 0.00 0.00 73 1008.9
20260504033301 4 232 0.0 0.0 0.00 0.00 0.00 71 1009.0
20260504032757 4 232 0.0 0.0 0.00 0.00 0.00 72 1009.0
20260504032254 4 232 0.0 0.0 0.00 0.00 0.00 73 1009.1
20260504031751 4 232 0.0 0.0 0.00 0.00 0.00 71 1009.0
20260504031249 5 233 0.0 0.0 0.00 0.00 0.00 71 1008.9
20260504030744 5 236 0.0 0.0 0.00 0.00 0.00 71 1009.0
20260504030242 5 226 0.0 0.0 0.00 0.00 0.00 70 1008.9
20260504025738 5 226 0.0 0.0 0.00 0.00 0.00 70 1009.0
20260504025235 5 226 0.0 0.0 0.00 0.00 0.00 69 1008.9
20260504024732 5 226 0.0 0.0 0.00 0.00 0.00 66 1009.0
20260504024228 6 217 0.0 0.0 0.00 0.00 0.00 64 1009.1
20260504023725 6 225 0.0 0.0 0.00 0.00 0.00 64 1009.2
20260504023221 6 230 0.0 0.0 0.00 0.00 0.00 65 1009.1
20260504022712 5 235 0.0 0.0 0.00 0.00 0.00 66 1009.1
20260504022209 5 235 0.0 0.0 0.00 0.00 0.00 69 1009.1
20260504021706 5 235 0.0 0.0 0.00 0.00 0.00 69 1009.4
20260504021203 5 235 0.0 0.0 0.00 0.00 0.00 70 1009.0
20260504020700 5 235 0.0 0.0 0.00 0.00 0.00 70 1009.1
20260504020155 5 236 0.0 0.0 0.00 0.00 0.00 72 1009.1
20260504015653 5 235 0.0 0.0 0.00 0.00 0.00 71 1009.0
20260504015149 5 224 0.0 0.0 0.00 0.00 0.00 70 1009.1
20260504014645 5 224 0.0 0.0 0.00 0.00 0.00 74 1008.9
20260504014142 5 224 0.0 0.0 0.00 0.00 0.00 70 1008.8
20260504013639 5 224 0.0 0.0 0.00 0.00 0.00 72 1008.8
20260504013136 5 222 0.0 0.0 0.00 0.00 0.00 71 1008.6
20260504012633 5 221 0.0 0.0 0.00 0.00 0.00 72 1008.8
20260504012131 5 221 0.0 0.0 0.00 0.00 0.00 70 1008.8
20260504011627 5 221 0.0 0.0 0.00 0.00 0.00 70 1008.8
20260504011124 5 221 0.0 0.0 0.00 0.00 0.00 69 1008.7
20260504010620 5 221 0.0 0.0 0.00 0.00 0.00 69 1008.7
20260504010116 5 221 0.0 0.0 0.00 0.00 0.00 69 1008.6
20260504005613 5 221 0.0 0.0 0.00 0.00 0.00 68 1008.6
20260504005110 5 221 0.0 0.0 0.00 0.00 0.00 67 1008.4
20260504004608 5 222 0.0 0.0 0.00 0.00 0.00 69 1008.6
20260504004105 5 222 0.0 0.0 0.00 0.00 0.00 67 1008.6
20260504003600 5 222 0.0 0.0 0.00 0.00 0.00 66 1008.4
20260504003057 5 222 0.0 0.0 0.00 0.00 0.00 65 1008.4
20260504002554 6 222 0.0 0.0 0.00 0.00 0.00 64 1008.3
20260504002052 6 222 0.0 0.0 0.00 0.00 0.00 63 1008.2
20260504001549 6 222 0.0 0.0 0.00 0.00 0.00 64 1008.2
20260504001045 6 227 0.0 0.0 0.00 0.00 0.00 60 1008.2
20260504000543 6 227 0.0 0.0 0.00 0.00 0.00 60 1008.1
20260504000040 7 227 0.0 0.0 0.00 0.00 0.00 58 1008.2
20260503235538 7 226 0.0 0.0 0.00 0.00 0.00 57 1008.0
20260503235035 7 237 0.0 0.0 0.00 0.00 0.00 56 1008.0
20260503234532 7 237 0.0 0.0 0.00 0.00 0.00 56 1008.0
20260503234031 8 226 0.0 0.0 0.00 0.00 0.00 54 1008.2
20260503233526 8 244 0.0 1.6 0.00 0.00 0.00 52 1008.1
20260503233023 8 233 0.0 0.0 0.00 0.00 0.00 53 1008.2
20260503232520 8 263 1.6 3.2 0.00 0.00 0.00 51 1008.1
20260503232017 8 214 0.0 0.0 0.00 0.00 0.00 52 1008.1
20260503231515 8 242 0.0 1.6 0.00 0.00 0.00 52 1008.1
20260503231012 8 216 0.0 0.0 0.00 0.00 0.00 52 1008.2
20260503230508 8 232 0.0 3.2 0.00 0.00 0.00 51 1007.8
20260503230006 8 181 3.2 3.2 0.00 0.00 0.00 50 1007.9
20260503225503 8 239 0.0 0.0 0.00 0.00 0.00 52 1008.0
20260503224958 9 216 0.0 1.6 0.00 0.00 0.00 49 1007.9
20260503224455 9 251 3.2 6.4 0.00 0.00 0.00 49 1008.1
20260503223953 9 260 0.0 11.3 0.00 0.00 0.00 49 1008.1
20260503223451 9 225 1.6 3.2 0.00 0.00 0.00 48 1008.1
20260503222946 9 229 0.0 1.6 0.00 0.00 0.00 51 1008.0
20260503222445 9 230 0.0 0.0 0.00 0.00 0.00 48 1007.8
20260503221942 9 169 1.6 4.8 0.00 0.00 0.00 52 1008.0
20260503221440 9 247 1.6 6.4 0.00 0.00 0.00 51 1007.9
20260503220937 9 222 1.6 3.2 0.00 0.00 0.00 48 1007.9
20260503220433 9 302 6.4 11.3 0.00 0.00 0.00 48 1008.1
20260503215930 10 192 0.0 3.2 0.00 0.00 0.00 48 1008.0
20260503215427 10 274 3.2 6.4 0.00 0.00 0.00 47 1007.8
20260503214925 10 205 3.2 6.4 0.00 0.00 0.00 46 1007.9
20260503214422 10 218 0.0 9.7 0.00 0.00 0.00 45 1007.7
20260503213920 10 286 1.6 4.8 0.00 0.00 0.00 46 1008.0
20260503213418 10 171 1.6 4.8 0.00 0.00 0.00 44 1007.8
20260503212914 10 243 4.8 11.3 0.00 0.00 0.00 43 1007.7
20260503212412 10 187 3.2 12.9 0.00 0.00 0.00 44 1007.7
20260503211909 10 150 4.8 9.7 0.00 0.00 0.00 43 1007.8
20260503211405 10 145 1.6 4.8 0.00 0.00 0.00 43 1007.6
20260503210900 10 272 4.8 12.9 0.00 0.00 0.00 41 1007.6
20260503210358 10 309 3.2 3.2 0.00 0.00 0.00 40 1007.5
20260503205853 10 278 1.6 12.9 0.00 0.00 0.00 41 1007.5
20260503205350 10 110 0.0 1.6 0.00 0.00 0.00 41 1007.5
20260503204846 10 246 3.2 9.7 0.00 0.00 0.00 42 1007.4
20260503204343 10 233 1.6 9.7 0.00 0.00 0.00 41 1007.4
20260503203841 10 253 1.6 1.6 0.00 0.00 0.00 40 1007.5
20260503203338 10 28 3.2 3.2 0.00 0.00 0.00 41 1007.3
20260503202835 10 254 3.2 6.4 0.00 0.00 0.00 39 1007.3
20260503202333 10 293 4.8 6.4 0.00 0.00 0.00 38 1007.2
20260503201831 10 313 6.4 12.9 0.00 0.00 0.00 37 1007.3
20260503201327 10 320 3.2 6.4 0.00 0.00 0.00 38 1007.6
20260503200825 10 181 0.0 6.4 0.00 0.00 0.00 39 1007.4
20260503200321 10 116 3.2 4.8 0.00 0.00 0.00 40 1007.5
20260503195819 10 134 3.2 9.7 0.00 0.00 0.00 38 1007.4
20260503195315 10 211 1.6 6.4 0.00 0.00 0.00 39 1007.3
20260503194813 10 280 1.6 4.8 0.00 0.00 0.00 38 1007.4
20260503194308 10 230 1.6 4.8 0.00 0.00 0.00 41 1007.6
20260503193804 10 233 3.2 6.4 0.00 0.00 0.00 40 1007.7
20260503193300 10 275 3.2 4.8 0.00 0.00 0.00 35 1007.8
20260503192756 10 166 3.2 12.9 0.00 0.00 0.00 35 1007.7
20260503192252 10 292 3.2 9.7 0.00 0.00 0.00 37 1007.8
20260503191748 10 323 4.8 6.4 0.00 0.00 0.00 37 1007.9
20260503191246 10 304 3.2 11.3 0.00 0.00 0.00 37 1007.9
20260503190742 10 317 1.6 6.4 0.00 0.00 0.00 41 1008.1
20260503190239 10 79 6.4 11.3 0.00 0.00 0.00 40 1008.0
20260503185737 10 212 3.2 11.3 0.00 0.00 0.00 38 1008.3
20260503185232 10 235 1.6 3.2 0.00 0.00 0.00 36 1008.1
20260503184727 10 255 3.2 6.4 0.00 0.00 0.00 37 1007.9
20260503184223 10 110 6.4 6.4 0.00 0.00 0.00 38 1008.3
20260503183720 9 102 3.2 4.8 0.00 0.00 0.00 38 1008.1
20260503183217 10 242 1.6 12.9 0.00 0.00 0.00 38 1008.3
20260503182716 9 258 3.2 9.7 0.00 0.00 0.00 38 1008.3
20260503182214 10 220 1.6 6.4 0.00 0.00 0.00 36 1008.3
20260503181710 10 160 1.6 3.2 0.00 0.00 0.00 39 1008.2
20260503181207 10 291 1.6 11.3 0.00 0.00 0.00 38 1008.2
20260503180703 9 128 4.8 16.1 0.00 0.00 0.00 38 1008.4
20260503180202 9 265 1.6 4.8 0.00 0.00 0.00 39 1008.3
20260503175658 9 131 4.8 11.3 0.00 0.00 0.00 36 1008.6
20260503175156 9 318 1.6 6.4 0.00 0.00 0.00 39 1008.3
20260503174652 9 227 1.6 12.9 0.00 0.00 0.00 39 1008.3
20260503174149 9 202 1.6 6.4 0.00 0.00 0.00 38 1008.2
20260503173644 8 283 8.0 14.5 0.00 0.00 0.00 38 1008.7
20260503173141 7 338 9.7 16.1 0.00 0.00 0.00 39 1008.3
20260503172638 8 332 8.0 11.3 0.00 0.00 0.00 37 1008.4
20260503172135 8 309 4.8 9.7 0.00 0.00 0.00 37 1008.4
20260503171631 8 336 3.2 11.3 0.00 0.00 0.00 39 1008.6
20260503171129 8 302 6.4 6.4 0.00 0.00 0.00 41 1008.6
20260503170626 8 220 1.6 11.3 0.00 0.00 0.00 40 1008.8
20260503170122 8 293 4.8 11.3 0.00 0.00 0.00 37 1008.4
20260503150514 5 222 0.0 14.5 0.00 0.00 0.00 48 1009.3